Location: Góry Miechowskie
(50.3599°N, 20.1803°E)
Time: 04:29:26
(UTC+00:00)

SR - Pass Details

Date: 18 September 2024
Orbit: 578 x 855 km, 66.7° (Epoch: 04 October)

Event Time Altitude Azimuth Distance (km) Brightness Sun altitude
Rises 19:20:36 0° 322° (NW) 2,917 ? -24.0°
Reaches altitude 10° 19:22:49 10° 322° (NW) 2,041 ? -24.3°
Maximum altitude 19:27:26 87° 236° (SW) 685 ? -24.8°
Enters shadow 19:27:32 85° 185° (S) 687 ? -24.9°
